Weather History for Saint Simons Island, GA

Change the Weather History Date:

Friday, May 16, 2014

  Actual Average Record
Temperature  
Mean Temperature 66 °F 75 °F  
Max Temperature 77 °F 82 °F 92 °F (1994)
Min Temperature 55 °F 67 °F 52 °F (1954)
Degree Days  
Heating Degree Days 0 0  
Month to date heating degree days 0 2  
Since 1 July heating degree days 1493 1486  
Cooling Degree Days 1 10  
Month to date cooling degree days 140 125  
Year to date cooling degree days 278 268  
Growing Degree Days 16 (Base 50)    
Moisture  
Dew Point 48 °F    
Average Humidity 57    
Maximum Humidity 80    
Minimum Humidity 33    
Precipitation  
Precipitation 0.00 in 0.05 in 0.58 in (1976)
Month to date precipitation 1.47 0.81  
Year to date precipitation 18.41 13.87  
Snow  
Snow 0.00 in - 0.00 in ()
Month to date snowfall 0.0  
Since 1 July snowfall T  
Snow Depth 0.00 in    
Sea Level Pressure  
Sea Level Pressure 30.04 in    
Wind  
Wind Speed 8 mph (WNW)    
Max Wind Speed 17 mph    
Max Gust Speed 25 mph    
Visibility 10 miles    
Events      
T = Trace of Precipitation, MM = Missing Value Source: NWS Daily Summary

Daily Weather History Graph

Daily Weather History Graph

Search for Another Location

Airport:

Trip Planner

Search our weather history database for the weather conditions in past years. The results will help you decide how hot, cold, wet, or windy it might be!

Date:

Astronomy

May. 16, 2014 Rise Set
Actual Time 6:29 AM EDT 8:14 PM EDT
Civil Twilight 6:02 AM EDT 8:41 PM EDT
Nautical Twilight 5:30 AM EDT 9:13 PM EDT
Astronomical Twilight 4:56 AM EDT 9:47 PM EDT
Moon 10:20 PM EDT (5/16) 8:09 AM EDT (5/16)
Length of Visible Light 14h 38m
Length of Day
13h 45m
Waning Gibbous, 95% of the Moon is Illuminated
May 16
Waning Gibbous
May 21
Last Quarter
May 28
New
Jun 5
First Quarter
Jun 13
Full

Hourly Weather History & Observations

Time (EDT) Temp. Dew Point Humidity Pressure Visibility Wind Dir Wind Speed Gust Speed Precip Events Conditions
12:00 AM 64.9 °F 61.0 °F 87% 29.98 in 10.0 mi NW 13.8 mph 24.2 mph N/A   Overcast
12:53 AM 64.0 °F 57.0 °F 78% 29.98 in 10.0 mi WNW 9.2 mph - N/A   Overcast
1:53 AM 62.1 °F 55.0 °F 78% 29.98 in 10.0 mi WNW 10.4 mph - N/A   Scattered Clouds
2:53 AM 60.1 °F 53.1 °F 78% 29.98 in 10.0 mi WNW 10.4 mph - N/A   Clear
3:53 AM 57.9 °F 51.1 °F 78% 29.99 in 10.0 mi NW 9.2 mph - N/A   Clear
4:53 AM 57.0 °F 48.0 °F 72% 29.99 in 10.0 mi WNW 10.4 mph 18.4 mph N/A   Clear
5:53 AM 55.9 °F 48.0 °F 75% 30.01 in 10.0 mi WNW 8.1 mph - N/A   Clear
6:53 AM 55.0 °F 48.0 °F 77% 30.03 in 10.0 mi WNW 8.1 mph - N/A   Clear
7:53 AM 55.9 °F 48.0 °F 75% 30.04 in 10.0 mi NW 11.5 mph - N/A   Clear
8:53 AM 57.9 °F 46.9 °F 67% 30.05 in 10.0 mi NW 9.2 mph 20.7 mph N/A   Clear
9:53 AM 62.1 °F 46.9 °F 58% 30.06 in 10.0 mi NW 10.4 mph 19.6 mph N/A   Clear
10:53 AM 66.9 °F 44.1 °F 44% 30.06 in 10.0 mi WNW 9.2 mph 21.9 mph N/A   Clear
11:53 AM 70.0 °F 41.0 °F 35% 30.08 in 10.0 mi NW 12.7 mph 19.6 mph N/A   Clear
12:53 PM 72.0 °F 43.0 °F 35% 30.07 in 10.0 mi WNW 12.7 mph 19.6 mph N/A   Clear
1:53 PM 73.9 °F 43.0 °F 33% 30.06 in 10.0 mi NW 10.4 mph 21.9 mph N/A   Clear
2:53 PM 75.0 °F 44.1 °F 33% 30.05 in 10.0 mi WNW 13.8 mph 19.6 mph N/A   Clear
3:53 PM 75.2 °F 44.6 °F 34% 30.03 in 10.0 mi NNW 9.2 mph 21.9 mph N/A   Clear
4:53 PM 77.0 °F 46.0 °F 33% 30.02 in 10.0 mi WNW 10.4 mph 19.6 mph N/A   Clear
5:53 PM 75.9 °F 45.0 °F 33% 30.01 in 10.0 mi Variable 6.9 mph 18.4 mph N/A   Clear
6:53 PM 75.9 °F 45.0 °F 33% 30.03 in 10.0 mi Variable 6.9 mph - N/A   Clear
7:53 PM 73.0 °F 48.0 °F 41% 30.04 in 10.0 mi West 4.6 mph - N/A   Clear
8:53 PM 70.0 °F 46.9 °F 44% 30.07 in 10.0 mi WNW 3.5 mph - N/A   Clear
9:53 PM 64.9 °F 51.1 °F 61% 30.09 in 10.0 mi Calm Calm - N/A   Clear
10:53 PM 63.0 °F 53.1 °F 70% 30.12 in 10.0 mi Calm Calm - N/A   Clear
11:53 PM 64.0 °F 53.1 °F 67% 30.12 in 10.0 mi West 3.5 mph - N/A   Clear